• In Romania
  • List of Countries
  • For 7 days
  • Water Temperature
  • Satellite Maps
  • Weather Map
  • Weather Widgets
  • user-avatar
    Login

    Hourly Weather Solden

    Today, 19 September, Tuesday

    Time Temperature Precipitation Wind Pressure Humidity
    00:00 -2°C° 0.4 mm 2 mps 580 mmHg 89%
    01:00 -2°C° 0 mm 3 mps 579 mmHg 90%
    02:00 -2°C° 0.5 mm 3 mps 579 mmHg 90%
    03:00 -3°C° 0.5 mm 2 mps 579 mmHg 90%
    04:00 -3°C° 0.5 mm 2 mps 578 mmHg 90%
    05:00 -3°C° 0.5 mm 2 mps 578 mmHg 89%
    06:00 -4°C° 0.5 mm 3 mps 578 mmHg 88%
    07:00 -4°C° 0 mm 4 mps 578 mmHg 89%
    08:00 -3°C° 0.7 mm 4 mps 579 mmHg 87%
    09:00 -2°C° 0.7 mm 3 mps 579 mmHg 85%
    10:00 -1°C° 0.7 mm 3 mps 579 mmHg 83%
    11:00 -1°C° 0.5 mm 3 mps 579 mmHg 81%
    12:00 -1°C° 0.5 mm 3 mps 579 mmHg 79%
    13:00 0°C° 0.5 mm 3 mps 580 mmHg 77%
    14:00 0°C° 0.3 mm 3 mps 580 mmHg 77%
    15:00 0°C° 0.3 mm 3 mps 579 mmHg 77%
    16:00 0°C° 0.3 mm 3 mps 579 mmHg 77%
    17:00 -1°C° 0.2 mm 3 mps 579 mmHg 80%
    18:00 -2°C° 0.2 mm 3 mps 579 mmHg 83%
    19:00 -4°C° 0.2 mm 3 mps 579 mmHg 86%
    20:00 -4°C° 0.1 mm 3 mps 579 mmHg 86%
    21:00 -5°C° 0.1 mm 3 mps 579 mmHg 86%
    22:00 -5°C° 0.1 mm 3 mps 580 mmHg 87%
    23:00 -5°C° 0.1 mm 3 mps 580 mmHg 87%

    Tomorrow, 20 September, Wednesday

    Time Temperature Precipitation Wind Pressure Humidity
    00:00 -4°C° 0.1 mm 2 mps 580 mmHg 87%
    01:00 -4°C° 0.1 mm 2 mps 580 mmHg 87%
    02:00 -4°C° 0.1 mm 2 mps 580 mmHg 87%
    03:00 -5°C° 0.1 mm 2 mps 580 mmHg 88%
    04:00 -5°C° 0.1 mm 2 mps 579 mmHg 88%
    05:00 -4°C° 0 mm 2 mps 580 mmHg 87%
    06:00 -5°C° 0 mm 3 mps 580 mmHg 86%
    07:00 -5°C° 0 mm 3 mps 581 mmHg 85%
    08:00 -2°C° 0 mm 3 mps 581 mmHg 80%
    09:00 0°C° 0 mm 3 mps 582 mmHg 74%
    10:00 +1°C° 0 mm 3 mps 583 mmHg 69%
    11:00 +3°C° 0 mm 2 mps 583 mmHg 67%
    12:00 +4°C° 0 mm 2 mps 584 mmHg 66%
    13:00 +4°C° 0 mm 2 mps 584 mmHg 64%
    14:00 +4°C° 0 mm 2 mps 584 mmHg 64%
    15:00 +4°C° 0 mm 2 mps 583 mmHg 65%
    16:00 +3°C° 0 mm 2 mps 583 mmHg 65%
    17:00 +1°C° 0 mm 2 mps 582 mmHg 71%
    18:00 -2°C° 0 mm 2 mps 582 mmHg 78%
    19:00 -4°C° 0 mm 2 mps 581 mmHg 84%
    20:00 -4°C° 0 mm 2 mps 581 mmHg 85%
    21:00 -5°C° 0 mm 2 mps 581 mmHg 86%
    22:00 -6°C° 0 mm 2 mps 581 mmHg 86%
    23:00 -6°C° 0 mm 2 mps 581 mmHg 84%

    Day after tomorrow, 21 September, Thursday

    Time Temperature Precipitation Wind Pressure Humidity
    00:00 -6°C° 0 mm 2 mps 581 mmHg 83%
    01:00 -7°C° 0 mm 2 mps 581 mmHg 81%
    02:00 -7°C° 0 mm 2 mps 581 mmHg 78%
    03:00 -7°C° 0 mm 2 mps 581 mmHg 75%
    04:00 -6°C° 0 mm 1 mps 581 mmHg 72%
    05:00 -4°C° 0 mm 1 mps 581 mmHg 70%
    06:00 -3°C° 0 mm 1 mps 582 mmHg 68%
    07:00 -3°C° 0 mm 1 mps 582 mmHg 65%
    08:00 0°C° 0 mm 1 mps 583 mmHg 62%
    09:00 +3°C° 0 mm 1 mps 584 mmHg 59%
    10:00 +6°C° 0 mm 1 mps 585 mmHg 56%
    11:00 +7°C° 0 mm 1 mps 585 mmHg 55%
    12:00 +8°C° 0 mm 1 mps 586 mmHg 54%
    13:00 +9°C° 0 mm 1 mps 586 mmHg 53%
    14:00 +9°C° 0 mm 1 mps 586 mmHg 54%
    15:00 +8°C° 0 mm 1 mps 585 mmHg 56%
    16:00 +8°C° 0 mm 1 mps 585 mmHg 57%
    17:00 +5°C° 0 mm 1 mps 584 mmHg 65%
    18:00 +3°C° 0 mm 1 mps 583 mmHg 72%
    19:00 0°C° 0 mm 1 mps 582 mmHg 79%
    20:00 0°C° 0 mm 1 mps 582 mmHg 79%
    21:00 -1°C° 0 mm 1 mps 582 mmHg 79%
    22:00 -1°C° 0 mm 1 mps 582 mmHg 79%
    23:00 -1°C° 0 mm 1 mps 582 mmHg 77%

    22 September, Friday

    Time Temperature Precipitation Wind Pressure Humidity
    00:00 -1°C° 0 mm 1 mps 582 mmHg 74%
    01:00 -1°C° 0 mm 1 mps 582 mmHg 72%
    02:00 -1°C° 0 mm 1 mps 582 mmHg 70%
    03:00 -3°C° 0 mm 2 mps 582 mmHg 67%
    04:00 -4°C° 0 mm 2 mps 582 mmHg 65%
    05:00 -3°C° 0 mm 2 mps 582 mmHg 63%
    06:00 -3°C° 0 mm 2 mps 582 mmHg 62%
    07:00 -2°C° 0 mm 2 mps 582 mmHg 60%
    08:00 +2°C° 0 mm 2 mps 584 mmHg 57%
    09:00 +6°C° 0 mm 1 mps 585 mmHg 53%
    10:00 +9°C° 0 mm 1 mps 586 mmHg 50%
    11:00 +9°C° 0 mm 1 mps 587 mmHg 49%
    12:00 +10°C° 0 mm 1 mps 587 mmHg 48%
    13:00 +10°C° 0 mm 2 mps 587 mmHg 47%
    14:00 +10°C° 0 mm 2 mps 587 mmHg 49%
    15:00 +9°C° 0 mm 2 mps 587 mmHg 52%
    16:00 +9°C° 0 mm 2 mps 586 mmHg 55%
    17:00 +7°C° 0 mm 1 mps 585 mmHg 64%
    18:00 +4°C° 0 mm 1 mps 584 mmHg 73%
    19:00 +2°C° 0 mm 1 mps 583 mmHg 82%
    20:00 +1°C° 0 mm 1 mps 583 mmHg 83%
    21:00 +1°C° 0 mm 1 mps 583 mmHg 84%
    22:00 0°C° 0 mm 1 mps 583 mmHg 85%
    23:00 0°C° 0 mm 1 mps 583 mmHg 85%

    23 September, Saturday

    Time Temperature Precipitation Wind Pressure Humidity
    00:00 0°C° 0 mm 1 mps 583 mmHg 84%
    01:00 0°C° 0 mm 1 mps 583 mmHg 83%
    02:00 0°C° 0 mm 1 mps 583 mmHg 82%
    03:00 0°C° 0 mm 1 mps 583 mmHg 82%
    04:00 0°C° 0 mm 1 mps 582 mmHg 81%
    05:00 0°C° 0 mm 1 mps 583 mmHg 78%
    06:00 +1°C° 0 mm 1 mps 583 mmHg 76%
    07:00 +1°C° 0 mm 1 mps 583 mmHg 74%
    08:00 +4°C° 0 mm 1 mps 584 mmHg 67%
    09:00 +6°C° 0 mm 1 mps 586 mmHg 61%
    10:00 +9°C° 0 mm 1 mps 587 mmHg 54%
    11:00 +10°C° 0 mm 1 mps 587 mmHg 53%
    12:00 +10°C° 0 mm 1 mps 587 mmHg 52%
    13:00 +11°C° 0 mm 1 mps 587 mmHg 51%
    14:00 +11°C° 0 mm 1 mps 586 mmHg 53%
    15:00 +9°C° 0 mm 2 mps 586 mmHg 56%
    16:00 +9°C° 0 mm 2 mps 586 mmHg 58%
    17:00 +8°C° 0 mm 1 mps 585 mmHg 68%
    18:00 +5°C° 0 mm 1 mps 584 mmHg 77%
    19:00 +3°C° 0 mm 1 mps 583 mmHg 86%
    20:00 +2°C° 0 mm 1 mps 583 mmHg 88%
    21:00 +2°C° 0 mm 1 mps 583 mmHg 89%
    22:00 +1°C° 0 mm 1 mps 583 mmHg 90%
    23:00 +1°C° 0 mm 1 mps 582 mmHg 90%

    24 September, Sunday

    Time Temperature Precipitation Wind Pressure Humidity
    00:00 +1°C° 0 mm 1 mps 582 mmHg 90%
    01:00 +1°C° 0 mm 1 mps 582 mmHg 90%
    02:00 +1°C° 0 mm 1 mps 582 mmHg 89%
    03:00 0°C° 0 mm 1 mps 582 mmHg 88%
    04:00 0°C° 0 mm 1 mps 582 mmHg 87%
    05:00 +1°C° 0 mm 1 mps 582 mmHg 84%
    06:00 +1°C° 0 mm 1 mps 582 mmHg 82%
    07:00 +1°C° 0 mm 1 mps 582 mmHg 80%
    08:00 +4°C° 0 mm 1 mps 584 mmHg 71%
    09:00 +6°C° 0 mm 1 mps 585 mmHg 62%
    10:00 +9°C° 0 mm 1 mps 586 mmHg 53%
    11:00 +10°C° 0 mm 1 mps 586 mmHg 52%
    12:00 +10°C° 0 mm 1 mps 586 mmHg 51%
    13:00 +11°C° 0 mm 1 mps 586 mmHg 50%
    14:00 +10°C° 0.1 mm 1 mps 586 mmHg 54%
    15:00 +10°C° 0.1 mm 1 mps 585 mmHg 57%
    16:00 +9°C° 0.1 mm 1 mps 585 mmHg 60%
    17:00 +7°C° 0.1 mm 1 mps 584 mmHg 69%
    18:00 +5°C° 0.1 mm 1 mps 584 mmHg 77%
    19:00 +3°C° 0.1 mm 1 mps 583 mmHg 86%
    20:00 +3°C° 0.1 mm 1 mps 583 mmHg 87%
    21:00 +2°C° 0.1 mm 1 mps 583 mmHg 88%
    22:00 +2°C° 0.1 mm 1 mps 583 mmHg 90%
    23:00 +2°C° 0 mm 1 mps 583 mmHg 90%
    Show more